Weather History for Glendive, MT

Change the Weather History Date:

Sunday, March 3, 2013

  Actual Average Record
Temperature  
Mean Temperature 42 °F -  
Max Temperature 55 °F 27 °F 60 °F (2005)
Min Temperature 30 °F 10 °F -14 °F (2002)
Degree Days  
Heating Degree Days 22    
Moisture  
Dew Point 32 °F    
Average Humidity 77    
Maximum Humidity 93    
Minimum Humidity 44    
Precipitation  
Precipitation 0.07 in - - ()
Sea Level Pressure  
Sea Level Pressure 29.64 in    
Wind  
Wind Speed 6 mph (WSW)    
Max Wind Speed 25 mph    
Max Gust Speed 37 mph    
Visibility 9 miles    
Events      
Averages and records for this station are not official NWS values.
T = Trace of Precipitation, MM = Missing Value Source: NWS Daily Summary

Daily Weather History Graph

Daily Weather History Graph

Search for Another Location

Airport:

Trip Planner

Search our weather history database for the weather conditions in past years. The results will help you decide how hot, cold, wet, or windy it might be!

Date:

Astronomy

Mar. 03, 2013 Rise Set
Actual Time 6:34 AM MST 5:47 PM MST
Civil Twilight 6:04 AM MST 6:18 PM MST
Nautical Twilight 5:29 AM MST 6:53 PM MST
Astronomical Twilight 4:53 AM MST 7:29 PM MST
Moon No Moon Rise 9:25 AM MST (3/3)
Length of Visible Light 12h 14m
Length of Day
11h 13m
Waning Gibbous, 63% of the Moon is Illuminated
Mar 3
Waning Gibbous
Mar 4
Last Quarter
Mar 11
New
Mar 19
First Quarter
Mar 27
Full

Hourly Weather History & Observations

Time (MST) Temp. Windchill Dew Point Humidity Pressure Visibility Wind Dir Wind Speed Gust Speed Precip Events Conditions
12:15 AM 33.8 °F - 30.2 °F 87% 29.83 in 10.0 mi Calm Calm - N/A   Overcast
12:55 AM 33.8 °F - 30.2 °F 87% 29.81 in 10.0 mi Calm Calm - N/A   Overcast
1:15 AM 33.8 °F - 28.4 °F 81% 29.80 in 10.0 mi Calm Calm - N/A   Overcast
1:35 AM 33.8 °F - 28.4 °F 81% 29.79 in 10.0 mi Calm Calm - N/A   Overcast
1:55 AM 33.8 °F - 28.4 °F 81% 29.79 in 10.0 mi Calm Calm - N/A   Mostly Cloudy
2:35 AM 32.0 °F 28.7 °F 28.4 °F 87% 29.76 in 10.0 mi SW 3.5 mph - N/A   Partly Cloudy
2:55 AM 32.0 °F 27.5 °F 28.4 °F 87% 29.75 in 10.0 mi SW 4.6 mph - N/A   Clear
3:15 AM 33.8 °F - 28.4 °F 81% 29.74 in 10.0 mi Calm Calm - N/A   Clear
3:35 AM 33.8 °F 29.6 °F 30.2 °F 87% 29.73 in 10.0 mi SSW 4.6 mph - N/A   Clear
3:55 AM 32.0 °F 26.4 °F 28.4 °F 87% 29.72 in 10.0 mi South 5.8 mph - N/A   Clear
4:15 AM 32.0 °F 27.5 °F 30.2 °F 93% 29.72 in 10.0 mi South 4.6 mph - N/A   Clear
4:35 AM 30.2 °F 24.3 °F 28.4 °F 93% 29.71 in 10.0 mi South 5.8 mph - N/A   Clear
5:35 AM 35.6 °F 27.5 °F 30.2 °F 81% 29.70 in 10.0 mi SSW 11.5 mph - N/A   Overcast
6:15 AM 35.6 °F 29.2 °F 30.2 °F 81% 29.69 in 10.0 mi SSW 8.1 mph - N/A   Overcast
6:35 AM 35.6 °F 29.2 °F 30.2 °F 81% 29.68 in 10.0 mi SSW 8.1 mph - N/A   Overcast
6:55 AM 35.6 °F 28.6 °F 30.2 °F 81% 29.68 in 10.0 mi SSW 9.2 mph - N/A   Overcast
7:15 AM 37.4 °F 31.4 °F 30.2 °F 75% 29.68 in 10.0 mi SW 8.1 mph - N/A   Overcast
7:35 AM 37.4 °F 34.9 °F 30.2 °F 75% 29.67 in 10.0 mi South 3.5 mph - N/A   Mostly Cloudy
7:55 AM 35.6 °F 31.7 °F 30.2 °F 81% 29.67 in 10.0 mi South 4.6 mph - N/A   Mostly Cloudy
8:15 AM 35.6 °F 30.7 °F 30.2 °F 81% 29.66 in 10.0 mi SSE 5.8 mph - N/A   Overcast
8:35 AM 37.4 °F 32.8 °F 30.2 °F 75% 29.66 in 10.0 mi SSE 5.8 mph - N/A   Mostly Cloudy
8:55 AM 37.4 °F 34.9 °F 32.0 °F 81% 29.66 in 10.0 mi South 3.5 mph - N/A   Partly Cloudy
9:15 AM 39.2 °F 37.0 °F 32.0 °F 75% 29.66 in 10.0 mi SSW 3.5 mph - N/A   Scattered Clouds
9:35 AM 41.0 °F 39.0 °F 33.8 °F 76% 29.65 in 10.0 mi ENE 3.5 mph - N/A   Partly Cloudy
9:55 AM 42.8 °F - 33.8 °F 70% 29.65 in 10.0 mi Calm Calm - N/A   Scattered Clouds
10:15 AM 42.8 °F 40.1 °F 37.4 °F 81% 29.63 in 10.0 mi ENE 4.6 mph - N/A   Overcast
10:35 AM 41.0 °F 39.0 °F 35.6 °F 81% 29.63 in 10.0 mi East 3.5 mph - N/A   Mostly Cloudy
10:55 AM 42.8 °F 38.0 °F 37.4 °F 81% 29.62 in 10.0 mi SSE 8.1 mph - N/A   Mostly Cloudy
11:15 AM 42.8 °F 38.6 °F 35.6 °F 76% 29.61 in 10.0 mi SSE 6.9 mph - N/A   Scattered Clouds
11:35 AM 44.6 °F - 35.6 °F 71% 29.60 in 10.0 mi Calm Calm - N/A   Mostly Cloudy
12:15 PM 46.4 °F 45.2 °F 37.4 °F 71% 29.59 in 10.0 mi South 3.5 mph - N/A   Scattered Clouds
12:35 PM 48.2 °F - 35.6 °F 62% 29.58 in 10.0 mi Calm Calm - N/A   Overcast
12:55 PM 50.0 °F - 35.6 °F 58% 29.57 in 10.0 mi Calm Calm - N/A   Mostly Cloudy
1:15 PM 51.8 °F - 35.6 °F 54% 29.56 in 10.0 mi SSW 5.8 mph - N/A   Mostly Cloudy
1:35 PM 53.6 °F - 37.4 °F 54% 29.54 in 10.0 mi SW 9.2 mph - N/A   Mostly Cloudy
1:55 PM 53.6 °F - 37.4 °F 54% 29.53 in 10.0 mi SW 11.5 mph - N/A   Partly Cloudy
2:15 PM 53.6 °F - 35.6 °F 51% 29.53 in 10.0 mi SW 12.7 mph 17.3 mph N/A   Clear
2:35 PM 53.6 °F - 35.6 °F 51% 29.52 in 10.0 mi WSW 12.7 mph - N/A   Clear
2:55 PM 55.4 °F - 35.6 °F 47% 29.52 in 10.0 mi WSW 10.4 mph - N/A   Clear
3:15 PM 55.4 °F - 33.8 °F 44% 29.52 in 10.0 mi WSW 9.2 mph - N/A   Clear
3:35 PM 55.4 °F - 33.8 °F 44% 29.51 in 10.0 mi West 10.4 mph - N/A   Partly Cloudy
3:55 PM 53.6 °F - 33.8 °F 47% 29.51 in 10.0 mi NW 12.7 mph - N/A   Mostly Cloudy
4:15 PM 50.0 °F - 35.6 °F 58% 29.51 in 10.0 mi NNW 11.5 mph - N/A   Mostly Cloudy
4:55 PM 44.6 °F 36.6 °F 37.4 °F 76% 29.56 in 10.0 mi NW 19.6 mph 27.6 mph 0.01 in   Overcast
5:15 PM 35.6 °F 23.7 °F 33.8 °F 93% 29.57 in 4.0 mi NW 24.2 mph 33.4 mph N/A   Overcast
5:35 PM 35.6 °F 24.2 °F 30.2 °F 81% 29.57 in 5.0 mi NW 21.9 mph 29.9 mph 0.01 in   Mostly Cloudy
5:55 PM 33.8 °F 22.2 °F 30.2 °F 87% 29.58 in 8.0 mi NW 20.7 mph 27.6 mph 0.01 in   Mostly Cloudy
6:15 PM 33.8 °F 21.6 °F 30.2 °F 87% 29.57 in 10.0 mi NW 23.0 mph 28.8 mph N/A   Mostly Cloudy
6:35 PM 33.8 °F 21.0 °F 30.2 °F 87% 29.59 in 10.0 mi NW 25.3 mph 34.5 mph N/A   Overcast
6:55 PM 33.8 °F 21.0 °F 30.2 °F 87% 29.59 in 4.0 mi NW 25.3 mph 32.2 mph N/A   Overcast
7:15 PM 33.8 °F 22.2 °F 30.2 °F 87% 29.61 in 2.5 mi NW 20.7 mph 33.4 mph 0.01 in   Overcast
7:55 PM 33.8 °F 22.2 °F 30.2 °F 87% 29.63 in 2.0 mi WNW 20.7 mph 36.8 mph 0.01 in   Overcast
8:15 PM 33.8 °F 22.2 °F 28.4 °F 81% 29.65 in 4.0 mi West 20.7 mph 26.5 mph 0.01 in   Overcast
8:35 PM 33.8 °F 22.8 °F 30.2 °F 87% 29.65 in 3.0 mi WNW 18.4 mph 24.2 mph 0.01 in   Overcast
8:55 PM 33.8 °F 23.9 °F 30.2 °F 87% 29.66 in 4.0 mi West 15.0 mph 21.9 mph 0.01 in   Overcast
9:15 PM 33.8 °F 24.3 °F 30.2 °F 87% 29.66 in 2.5 mi West 13.8 mph 19.6 mph N/A   Overcast
9:55 PM 33.8 °F 25.3 °F 30.2 °F 87% 29.66 in 4.0 mi West 11.5 mph - N/A   Overcast
10:15 PM 33.8 °F 24.8 °F 30.2 °F 87% 29.66 in 2.5 mi West 12.7 mph - N/A   Overcast
10:55 PM 33.8 °F 24.8 °F 30.2 °F 87% 29.66 in 9.0 mi West 12.7 mph 17.3 mph 0.02 in   Mostly Cloudy
11:15 PM 33.8 °F 24.8 °F 30.2 °F 87% 29.67 in 10.0 mi West 12.7 mph - 0.01 in   Scattered Clouds
11:35 PM 33.8 °F 23.5 °F 28.4 °F 81% 29.67 in 10.0 mi WSW 16.1 mph 19.6 mph 0.01 in   Mostly Cloudy